Location: Misciano
(43.5000°N, 11.9500°E)
Time: 07:59:23
(UTC+00:00)

Timation 2 Rocket - Pass Details

Date: 13 August 2020
Orbit: 907 x 1075 km, 70.0° (Epoch: 26 September)

Event Time Altitude Azimuth Distance (km) Brightness Sun altitude
Exits shadow 23:26:05 63° 332° (NNW) 1,034 4.2 -32.2°
Drops below altitude 10° 23:31:29 10° 22° (NNE) 2,611 7.0 -32.1°
Sets 23:34:00 0° 25° (NNE) 3,548 7.9 -32.1°
